This is the latest recevied weather packets stored in our database for station/object N3MFL. If no packets are shown the sender has not sent any weather packets the latest 10 day(s).
| Time | Temp. | Humidity | Pressure | Rain* | Wind** | Luminosity | Snow |
|---|---|---|---|---|---|---|---|
| 1778013230 | 18.33° C | 65% | 1010.4 hPa | 0 mm | - | 390 W/m² | - |
| 1778012927 | 18.33° C | 64% | 1010.2 hPa | 0 mm | - | 401 W/m² | - |
| 1778012623 | 18.33° C | 65% | 1010.3 hPa | 0 mm | - | 415 W/m² | - |
| 1778012320 | 18.33° C | 64% | 1010.2 hPa | 0 mm | - | 430 W/m² | - |
| 1778012017 | 18.89° C | 63% | 1010.2 hPa | 0 mm | - | 440 W/m² | - |
| 1778011716 | 18.89° C | 62% | 1010.2 hPa | 0 mm | - | 452 W/m² | - |
| 1778011412 | 18.89° C | 64% | 1010 hPa | 0 mm | - | 465 W/m² | - |
| 1778011108 | 19.44° C | 63% | 1010.1 hPa | 0 mm | - | 479 W/m² | - |
| 1778010805 | 19.44° C | 61% | 1010 hPa | 0 mm | - | 491 W/m² | - |
| 1778010502 | 18.89° C | 62% | 1010 hPa | 0 mm | - | 502 W/m² | - |
| 1778010199 | 18.89° C | 63% | 1010.2 hPa | 0 mm | - | 514 W/m² | - |
| 1778009894 | 18.89° C | 63% | 1010.4 hPa | 0 mm | - | 524 W/m² | - |
| 1778009593 | 19.44° C | 62% | 1010.4 hPa | 0 mm | - | 534 W/m² | - |
| 1778009290 | 19.44° C | 63% | 1010.3 hPa | 0 mm | - | 545 W/m² | - |
| 1778008988 | 20° C | 60% | 1010.3 hPa | 0 mm | - | 557 W/m² | - |
| 1778008686 | 20.56° C | 60% | 1010.3 hPa | 0 mm | - | 554 W/m² | - |
| 1778008384 | 19.44° C | 61% | 1010.5 hPa | 0 mm | - | 505 W/m² | - |
| 1778008080 | 20° C | 61% | 1010.4 hPa | 0 mm | - | 581 W/m² | - |
| 1778007775 | 20.56° C | 61% | 1010.1 hPa | 0 mm | - | 550 W/m² | - |
| 1778007472 | 20.56° C | 60% | 1010.3 hPa | 0 mm | - | 532 W/m² | - |
| 1778007168 | 20.56° C | 59% | 1010.3 hPa | 0 mm | - | 420 W/m² | - |
| 1778006864 | 20.56° C | 60% | 1010.4 hPa | 0 mm | - | 384 W/m² | - |
| 1778006562 | 20° C | 60% | 1010.5 hPa | 0 mm | - | 166 W/m² | - |
| 1778006258 | 20.56° C | 59% | 1010.4 hPa | 0 mm | - | 198 W/m² | - |
| 1778005956 | 20.56° C | 59% | 1010.4 hPa | 0 mm | - | 267 W/m² | - |
* Rain latest hour (hover to see other rain measurements)
** Current wind speed in m/s (hover to see current wind gust speed)